Flag for U.S.A. Weather past 2 weeks in Paradise, California, U.S.A.

Now
86 °F

Sunny.


Feels Like: 85 °F
Forecast: 65 / 82 °F
Wind: 8 mph from Southeast

Location: Chico Municipal

Current Time: Jul 6, 2015 at 9:45:19 PM

Latest Report: Jul 6, 2015 at 9:15 PM


Visibility: 10 mi

Pressure: 29.88 "Hg (28.16 "Hg at 527m altitude)

Humidity: 40%

Dew point: 59 °F

Location of ParadiseLocation

Historic Weather in Paradise — Graph

°F

Paradise temperature yesterday

Maximum temperature yesterday: 95 °F (at 4:50 PM)
Minimum temperature yesterday: 72 °F (at 5:55 AM)
Average temperature yesterday: 83 °F

Past Weeks' High & Low Weather Summary

 TemperatureHumidityPressure
High108 °F (Jun 30, 4:50 PM)73% (Jul 6, 5:15 AM)30.03 "Hg (Jul 6, 5:15 AM)
Low59 °F (Jun 22, 5:55 AM)9% (Jun 22, 4:55 PM)29.69 "Hg (Jul 4, 6:55 PM)
Average83 °F36%29.86 "Hg
* Reported Jun 21 7:15 PM — Jul 6 7:55 PM, Paradise, Weather by CustomWeather, © 2015

Note: Actual official high and low records may vary slightly from our data, if they occured in-between our weather recording intervals... More about our weather records

Advertising

Paradise weather history for previous 24 hours

 ConditionsComfort  
Time TempWeatherWind HumidityBarometerVisibility
7:55 PM
Mon, Jul 6
90 °FSunny.9 mph31%29.88 "Hg10 mi
7:35 PM90 °FSunny.9 mph31%29.88 "Hg10 mi
7:15 PM90 °FSunny.7 mph31%29.87 "Hg10 mi
6:55 PM90 °FSunny.8 mph33%29.88 "Hg10 mi
5:52 PM90 °FBroken clouds.9 mph41%29.89 "Hg40 mi
3:48 PM88 °FBroken clouds.9 mph38%29.93 "Hg40 mi
2:56 PM88 °FBroken clouds.12 mph38%29.95 "Hg40 mi
1:50 PM86 °FBroken clouds.6 mph38%29.97 "Hg40 mi
12:48 PM82 °FBroken clouds.12 mph42%29.99 "Hg40 mi
11:50 AM81 °FBroken clouds.9 mph45%30.01 "Hg40 mi
10:50 AM77 °FBroken clouds.9 mph51%30.02 "Hg40 mi
9:55 AM73 °FScattered clouds.9 mph57%30.03 "Hg40 mi
8:55 AM68 °FScattered clouds.9 mph69%30.03 "Hg40 mi
7:55 AM66 °FScattered clouds.7 mph73%30.02 "Hg40 mi
6:50 AM66 °FPassing clouds.9 mph73%30.00 "Hg40 mi
6:35 AM66 °FClear.10 mph73%29.99 "Hg10 mi
6:15 AM66 °FClear.9 mph73%29.98 "Hg10 mi
5:35 AM66 °FClear.7 mph73%29.97 "Hg10 mi
5:15 AM66 °FClear.6 mph73%29.96 "Hg10 mi
4:55 AM68 °FClear.8 mph69%29.95 "Hg10 mi
4:35 AM68 °FClear.9 mph69%29.95 "Hg10 mi
4:15 AM68 °FClear.10 mph69%29.95 "Hg10 mi
3:55 AM70 °FClear.8 mph64%29.93 "Hg10 mi
3:35 AM70 °FClear.8 mph64%29.93 "Hg10 mi
3:15 AM72 °FClear.8 mph61%29.93 "Hg10 mi
2:55 AM72 °FClear.10 mph61%29.93 "Hg10 mi
2:35 AM72 °FClear.12 mph61%29.92 "Hg10 mi
2:15 AM73 °FClear.12 mph57%29.92 "Hg10 mi
1:55 AM73 °FClear.13 mph57%29.91 "Hg10 mi
1:35 AM73 °FClear.No wind57%29.91 "Hg10 mi
1:15 AM75 °FClear.No wind54%29.90 "Hg10 mi
12:55 AM75 °FClear.13 mph54%29.89 "Hg10 mi
12:15 AM77 °FClear.15 mph51%29.88 "Hg10 mi
11:55 PM
Sun, Jul 5
79 °FClear.15 mph51%29.87 "Hg10 mi
11:15 PM82 °FClear.14 mph45%29.86 "Hg10 mi
10:55 PM82 °FClear.9 mph45%29.86 "Hg10 mi
10:35 PM82 °FClear.14 mph45%29.86 "Hg10 mi
10:15 PM84 °FClear.16 mph43%29.86 "Hg10 mi
9:55 PM86 °FClear.21 mph40%29.85 "Hg10 mi
9:35 PM88 °FSunny.16 mph38%29.83 "Hg10 mi
9:15 PM88 °FSunny.13 mph38%29.82 "Hg10 mi
Weather by CustomWeather, © 2015

See weather overviewHow to use our weather pages